User: anonymous   Login
Location: ?????
(32.7281°N, 34.9563°E)
Time: 10:58:08
(UTC+00:00)
Language:

NOAA 11 - Orbit

View from above orbital plane
View from above orbital plane
View from above satellite
View from above satellite

Ground track
Ground track

The orbit data is extracted from the following two-line orbital elements,

1 19531U 88089A   21022.76710508 -.00000005  00000-0  18118-4 0  9992
2 19531  98.4057  35.7298 0010648 206.1144 153.9494 14.15266627668583
Epoch (UTC): 22 January 2021 18:24:37
Eccentricity: 0.0010648
inclination: 98.4057°
perigee height: 834 km
apogee height: 849 km
right ascension of ascending node: 35.7298°
argument of perigee: 206.1144°
revolutions per day: 14.15266627
mean anomaly at epoch: 153.9494°
orbit number at epoch: 66858

The dashed part of the orbit path shows where the satellite is in the earth's shadow,  

DLR